TimeCDT,TemperatureF,Dew PointF,Humidity,Sea Level PressureIn,VisibilityMPH,Wind Direction,Wind SpeedMPH,Gust SpeedMPH,PrecipitationIn,Events,Conditions,WindDirDegrees,DateUTC
12:52 AM,46.0,28.9,51,30.14,10.0,NE,12.7,-,N/A,,Mostly Cloudy,50,2013-04-05 05:52:00
1:52 AM,41.0,28.9,62,30.16,10.0,NNW,5.8,-,N/A,,Scattered Clouds,340,2013-04-05 06:52:00
2:52 AM,39.9,28.9,65,30.16,10.0,NNE,3.5,-,N/A,,Scattered Clouds,20,2013-04-05 07:52:00
3:52 AM,37.9,28.9,70,30.18,10.0,Calm,Calm,-,N/A,,Scattered Clouds,0,2013-04-05 08:52:00
4:52 AM,36.0,28.9,76,30.18,10.0,NE,4.6,-,N/A,,Clear,40,2013-04-05 09:52:00
5:52 AM,35.1,28.0,76,30.18,10.0,ENE,4.6,-,N/A,,Scattered Clouds,70,2013-04-05 10:52:00
6:52 AM,35.1,28.0,76,30.19,10.0,East,3.5,-,N/A,,Mostly Cloudy,100,2013-04-05 11:52:00
7:52 AM,35.1,28.0,76,30.19,10.0,Calm,Calm,-,N/A,,Mostly Cloudy,0,2013-04-05 12:52:00
8:52 AM,39.0,28.9,67,30.18,10.0,SE,9.2,-,N/A,,Mostly Cloudy,140,2013-04-05 13:52:00
9:52 AM,44.1,28.9,55,30.17,10.0,SE,13.8,-,N/A,,Mostly Cloudy,140,2013-04-05 14:52:00
10:52 AM,48.2,30.2,50,30.13,10.0,SE,12.7,-,N/A,,Mostly Cloudy,130,2013-04-05 15:52:00
11:52 AM,55.0,30.0,38,30.09,10.0,SE,20.7,-,N/A,,Mostly Cloudy,140,2013-04-05 16:52:00
12:52 PM,60.1,32.0,35,30.05,10.0,SE,19.6,24.2,N/A,,Mostly Cloudy,140,2013-04-05 17:52:00
1:52 PM,62.1,34.0,35,29.99,10.0,SSE,20.7,25.3,N/A,,Mostly Cloudy,150,2013-04-05 18:52:00
2:52 PM,64.9,35.1,33,29.94,10.0,South,25.3,31.1,N/A,,Overcast,180,2013-04-05 19:52:00
3:52 PM,66.0,36.0,33,29.89,10.0,SSE,20.7,28.8,N/A,,Overcast,150,2013-04-05 20:52:00
4:52 PM,68.0,37.0,32,29.84,10.0,SSE,24.2,32.2,N/A,,Overcast,150,2013-04-05 21:52:00
5:52 PM,69.1,37.0,31,29.81,10.0,SSE,18.4,29.9,N/A,,Overcast,160,2013-04-05 22:52:00
6:52 PM,66.9,37.0,33,29.79,10.0,SSE,19.6,-,N/A,,Overcast,160,2013-04-05 23:52:00
7:52 PM,66.9,36.0,32,29.77,10.0,SSE,21.9,27.6,N/A,,Overcast,160,2013-04-06 00:52:00
8:52 PM,64.9,35.1,33,29.76,10.0,South,24.2,-,N/A,,Overcast,170,2013-04-06 01:52:00
9:52 PM,63.0,36.0,37,29.75,10.0,SSE,18.4,-,N/A,,Overcast,160,2013-04-06 02:52:00
10:52 PM,61.0,36.0,39,29.74,10.0,South,21.9,28.8,N/A,,Mostly Cloudy,170,2013-04-06 03:52:00
11:52 PM,60.1,37.0,42,29.72,10.0,SSE,18.4,-,N/A,,Overcast,160,2013-04-06 04:52:00